UAL420 KSLC-KBOI

Flight info

Callsign UAL420
Flight time 0h 43m
Altitude 36000
Route CGULL1 TWF BROPH SPUUD4
Aircraft A346/H-SDE2E3FGHIJ3J4J5M1RWXY/LB1D1

Departure

Time 2026-05-08 04:23
Airport Salt Lake City International Airport (KSLC)

Arrival

Time 2026-05-08 05:07
Airport Boise Air Terminal/Gowen Field (KBOI)
Time Latitude Longitude Altitude Speed Heading
2026-05-08 04:06 40.78653 -111.98448 4238 ft 0 kts 164°
2026-05-08 04:15 40.78659 -111.98451 4238 ft 4 kts 161°
2026-05-08 04:15 40.78687 -111.98472 4238 ft 4 kts 132°
2026-05-08 04:15 40.78695 -111.98488 4237 ft 4 kts 115°
2026-05-08 04:15 40.78702 -111.98519 4236 ft 4 kts 94°
2026-05-08 04:16 40.78701 -111.98553 4237 ft 3 kts 84°
2026-05-08 04:16 40.78701 -111.98557 4238 ft 0 kts 84°
2026-05-08 04:18 40.78702 -111.98548 4236 ft 2 kts 84°
2026-05-08 04:18 40.78705 -111.98500 4237 ft 7 kts 84°
2026-05-08 04:18 40.78712 -111.98412 4239 ft 15 kts 84°
2026-05-08 04:19 40.78724 -111.98252 4239 ft 19 kts 84°
2026-05-08 04:19 40.78737 -111.98073 4239 ft 21 kts 84°
2026-05-08 04:19 40.78750 -111.97890 4239 ft 18 kts 85°
2026-05-08 04:19 40.78756 -111.97741 4239 ft 15 kts 101°
2026-05-08 04:20 40.78677 -111.97672 4240 ft 16 kts 174°
2026-05-08 04:20 40.78559 -111.97655 4239 ft 18 kts 174°
2026-05-08 04:20 40.78422 -111.97642 4239 ft 21 kts 176°
2026-05-08 04:20 40.78273 -111.97625 4239 ft 22 kts 176°
2026-05-08 04:21 40.78115 -111.97609 4239 ft 23 kts 175°
2026-05-08 04:21 40.77950 -111.97585 4263 ft 23 kts 158°
2026-05-08 04:21 40.77797 -111.97517 4264 ft 24 kts 174°
2026-05-08 04:21 40.77628 -111.97496 4264 ft 25 kts 174°
2026-05-08 04:22 40.77470 -111.97452 4264 ft 16 kts 126°
2026-05-08 04:22 40.77511 -111.97337 4263 ft 16 kts 24°
2026-05-08 04:22 40.77625 -111.97336 4264 ft 18 kts 354°
2026-05-08 04:22 40.78035 -111.97384 4264 ft 104 kts 355°
2026-05-08 04:23 40.79026 -111.97496 4242 ft 178 kts 355°
2026-05-08 04:23 40.80386 -111.97670 4744 ft 206 kts 353°
2026-05-08 04:23 40.81781 -111.98249 5611 ft 218 kts 329°
2026-05-08 04:23 40.83051 -111.99502 6459 ft 242 kts 320°
2026-05-08 04:24 40.84170 -112.01364 6762 ft 274 kts 297°
2026-05-08 04:24 40.84976 -112.03756 6979 ft 301 kts 292°
2026-05-08 04:24 40.85718 -112.06250 7101 ft 283 kts 291°
2026-05-08 04:24 40.86538 -112.08591 7332 ft 284 kts 304°
2026-05-08 04:25 40.87756 -112.10665 8064 ft 282 kts 309°
2026-05-08 04:25 40.89014 -112.12630 8636 ft 278 kts 310°
2026-05-08 04:25 40.90267 -112.14608 9173 ft 284 kts 309°
2026-05-08 04:25 40.91514 -112.16625 10246 ft 281 kts 308°
2026-05-08 04:26 40.92735 -112.18627 11313 ft 278 kts 307°
2026-05-08 04:26 40.93945 -112.20631 12285 ft 280 kts 307°
2026-05-08 04:26 40.95156 -112.22657 13254 ft 282 kts 306°
2026-05-08 04:26 40.96375 -112.24707 14167 ft 284 kts 306°
2026-05-08 04:27 40.97593 -112.26776 15051 ft 286 kts 306°
2026-05-08 04:27 40.98821 -112.28861 15926 ft 288 kts 307°
2026-05-08 04:27 41.00071 -112.30982 16743 ft 295 kts 307°
2026-05-08 04:27 41.01367 -112.33184 17241 ft 311 kts 308°
2026-05-08 04:28 41.02740 -112.35511 17646 ft 330 kts 308°
2026-05-08 04:28 41.04193 -112.37972 18026 ft 348 kts 308°
2026-05-08 04:28 41.05788 -112.40482 18398 ft 363 kts 314°
2026-05-08 04:28 41.07651 -112.42792 19026 ft 370 kts 320°
2026-05-08 04:29 41.09724 -112.44848 19773 ft 373 kts 326°
2026-05-08 04:29 41.11915 -112.46732 20472 ft 378 kts 327°
2026-05-08 04:29 41.14157 -112.48610 21150 ft 384 kts 328°
2026-05-08 04:29 41.16420 -112.50544 21854 ft 389 kts 326°
2026-05-08 04:30 41.18628 -112.52653 22571 ft 394 kts 324°
2026-05-08 04:30 41.20824 -112.54861 23294 ft 398 kts 323°
2026-05-08 04:30 41.23039 -112.57111 23887 ft 403 kts 323°
2026-05-08 04:30 41.25260 -112.59409 24514 ft 406 kts 322°
2026-05-08 04:31 41.27413 -112.61867 25173 ft 408 kts 319°
2026-05-08 04:31 41.29470 -112.64487 25831 ft 411 kts 316°
2026-05-08 04:31 41.31440 -112.67263 26486 ft 413 kts 314°
2026-05-08 04:31 41.33386 -112.70092 27167 ft 415 kts 314°
2026-05-08 04:32 41.35333 -112.72941 27841 ft 416 kts 314°
2026-05-08 04:32 41.37286 -112.75805 28512 ft 418 kts 314°
2026-05-08 04:32 41.39244 -112.78676 29112 ft 420 kts 314°
2026-05-08 04:32 41.41211 -112.81586 29680 ft 424 kts 313°
2026-05-08 04:33 41.43161 -112.84550 30247 ft 425 kts 313°
2026-05-08 04:33 41.45096 -112.87515 30980 ft 421 kts 313°
2026-05-08 04:33 41.47009 -112.90453 31794 ft 416 kts 313°
2026-05-08 04:33 41.48895 -112.93350 32631 ft 411 kts 313°
2026-05-08 04:34 41.50759 -112.96215 33448 ft 406 kts 313°
2026-05-08 04:34 41.52600 -112.99044 34194 ft 401 kts 313°
2026-05-08 04:34 41.54431 -113.01859 34786 ft 399 kts 313°
2026-05-08 04:34 41.56258 -113.04669 35246 ft 400 kts 313°
2026-05-08 04:35 41.58090 -113.07487 35645 ft 402 kts 313°
2026-05-08 04:35 41.59928 -113.10316 35894 ft 404 kts 313°
2026-05-08 04:35 41.63689 -113.16106 35913 ft 421 kts 313°
2026-05-08 04:36 41.67500 -113.21994 35903 ft 420 kts 313°
2026-05-08 04:36 41.71322 -113.27915 35910 ft 420 kts 313°
2026-05-08 04:37 41.75143 -113.33843 35917 ft 420 kts 313°
2026-05-08 04:37 41.78964 -113.39782 35916 ft 421 kts 313°
2026-05-08 04:38 41.82795 -113.45744 35901 ft 423 kts 313°
2026-05-08 04:38 41.86633 -113.51737 35929 ft 423 kts 313°
2026-05-08 04:39 41.90470 -113.57740 35927 ft 424 kts 313°
2026-05-08 04:39 41.94304 -113.63751 35944 ft 423 kts 313°
2026-05-08 04:40 41.98125 -113.69750 35942 ft 422 kts 313°
2026-05-08 04:40 42.01950 -113.75767 35915 ft 423 kts 312°
2026-05-08 04:41 42.05784 -113.81808 35938 ft 425 kts 312°
2026-05-08 04:41 42.09614 -113.87866 35941 ft 424 kts 312°
2026-05-08 04:42 42.13439 -113.93926 35938 ft 424 kts 312°
2026-05-08 04:42 42.17264 -113.99992 35937 ft 425 kts 312°
2026-05-08 04:43 42.21108 -114.06066 35939 ft 424 kts 312°
2026-05-08 04:43 42.24953 -114.12144 35923 ft 427 kts 312°
2026-05-08 04:44 42.28805 -114.18259 35911 ft 425 kts 312°
2026-05-08 04:44 42.30699 -114.21274 35663 ft 417 kts 312°
2026-05-08 04:44 42.32576 -114.24262 35045 ft 417 kts 312°
2026-05-08 04:45 42.34475 -114.27281 34031 ft 426 kts 311°
2026-05-08 04:45 42.36412 -114.30370 32962 ft 433 kts 311°
2026-05-08 04:45 42.38373 -114.33502 32053 ft 437 kts 311°
2026-05-08 04:45 42.40345 -114.36654 31127 ft 441 kts 311°
2026-05-08 04:46 42.42342 -114.39851 30272 ft 446 kts 311°
2026-05-08 04:46 42.44357 -114.43081 29343 ft 450 kts 311°
2026-05-08 04:46 42.46394 -114.46350 28795 ft 457 kts 311°
2026-05-08 04:46 42.48450 -114.49649 28264 ft 458 kts 311°
2026-05-08 04:47 42.50514 -114.52935 27722 ft 456 kts 311°
2026-05-08 04:47 42.52569 -114.56202 27198 ft 454 kts 311°
2026-05-08 04:47 42.54615 -114.59460 26650 ft 453 kts 311°
2026-05-08 04:47 42.56653 -114.62711 26128 ft 449 kts 311°
2026-05-08 04:48 42.58637 -114.65882 25668 ft 445 kts 311°
2026-05-08 04:48 42.60639 -114.69086 25040 ft 443 kts 311°
2026-05-08 04:48 42.62623 -114.72266 24476 ft 440 kts 310°
2026-05-08 04:48 42.64600 -114.75435 23934 ft 439 kts 310°
2026-05-08 04:49 42.66572 -114.78602 23381 ft 438 kts 310°
2026-05-08 04:49 42.68535 -114.81763 22834 ft 436 kts 310°
2026-05-08 04:49 42.70485 -114.84906 22355 ft 433 kts 310°
2026-05-08 04:49 42.72455 -114.87991 21899 ft 430 kts 312°
2026-05-08 04:50 42.74484 -114.90941 21459 ft 423 kts 313°
2026-05-08 04:50 42.76493 -114.93825 21093 ft 418 kts 313°
2026-05-08 04:50 42.78492 -114.96683 20651 ft 416 kts 313°
2026-05-08 04:50 42.80479 -114.99531 20126 ft 412 kts 313°
2026-05-08 04:51 42.82448 -115.02358 19657 ft 406 kts 313°
2026-05-08 04:51 42.84378 -115.05133 19231 ft 400 kts 313°
2026-05-08 04:51 42.86279 -115.07872 18826 ft 394 kts 313°
2026-05-08 04:51 42.88152 -115.10573 18413 ft 389 kts 313°
2026-05-08 04:52 42.89997 -115.13236 18012 ft 384 kts 313°
2026-05-08 04:52 42.91821 -115.15870 17571 ft 378 kts 313°
2026-05-08 04:52 42.93617 -115.18468 17147 ft 373 kts 313°
2026-05-08 04:52 42.95384 -115.21031 16736 ft 368 kts 313°
2026-05-08 04:53 42.97105 -115.23531 16323 ft 364 kts 313°
2026-05-08 04:53 42.98829 -115.26037 15927 ft 359 kts 313°
2026-05-08 04:53 43.00541 -115.28529 15527 ft 356 kts 313°
2026-05-08 04:53 43.02228 -115.30983 15142 ft 353 kts 313°
2026-05-08 04:54 43.03899 -115.33418 14764 ft 349 kts 313°
2026-05-08 04:54 43.05556 -115.35836 14378 ft 346 kts 313°
2026-05-08 04:54 43.07197 -115.38231 14000 ft 343 kts 313°
2026-05-08 04:54 43.08825 -115.40610 13587 ft 341 kts 313°
2026-05-08 04:55 43.10438 -115.42967 13195 ft 338 kts 313°
2026-05-08 04:55 43.12030 -115.45296 12850 ft 331 kts 313°
2026-05-08 04:55 43.13590 -115.47579 12515 ft 325 kts 312°
2026-05-08 04:55 43.15115 -115.49813 12212 ft 318 kts 312°
2026-05-08 04:56 43.16609 -115.51997 11934 ft 310 kts 312°
2026-05-08 04:56 43.18073 -115.54139 11570 ft 305 kts 312°
2026-05-08 04:56 43.19509 -115.56245 11298 ft 298 kts 312°
2026-05-08 04:56 43.20902 -115.58287 11126 ft 288 kts 312°
2026-05-08 04:57 43.22243 -115.60253 11043 ft 276 kts 312°
2026-05-08 04:57 43.23542 -115.62161 10895 ft 272 kts 311°
2026-05-08 04:57 43.24830 -115.64051 10634 ft 270 kts 311°
2026-05-08 04:57 43.26111 -115.65933 10381 ft 269 kts 311°
2026-05-08 04:58 43.27400 -115.67794 10098 ft 269 kts 313°
2026-05-08 04:58 43.28758 -115.69567 9720 ft 269 kts 315°
2026-05-08 04:58 43.30114 -115.71310 9409 ft 266 kts 315°
2026-05-08 04:58 43.31464 -115.73044 9047 ft 264 kts 315°
2026-05-08 04:59 43.32795 -115.74752 8787 ft 259 kts 315°
2026-05-08 04:59 43.34101 -115.76429 8541 ft 254 kts 315°
2026-05-08 04:59 43.35374 -115.78069 8283 ft 249 kts 315°
2026-05-08 04:59 43.36626 -115.79682 8050 ft 243 kts 316°
2026-05-08 05:00 43.37848 -115.81259 7961 ft 241 kts 316°
2026-05-08 05:00 43.39058 -115.82865 7945 ft 242 kts 315°
2026-05-08 05:00 43.40248 -115.84504 7879 ft 243 kts 314°
2026-05-08 05:00 43.41430 -115.86139 7626 ft 239 kts 314°
2026-05-08 05:01 43.42593 -115.87748 7392 ft 235 kts 315°
2026-05-08 05:01 43.43739 -115.89330 7177 ft 231 kts 315°
2026-05-08 05:01 43.44867 -115.90883 6942 ft 227 kts 315°
2026-05-08 05:01 43.45963 -115.92402 6794 ft 220 kts 312°
2026-05-08 05:02 43.46846 -115.94080 6768 ft 220 kts 300°
2026-05-08 05:02 43.47542 -115.95974 6500 ft 221 kts 298°
2026-05-08 05:02 43.48195 -115.97885 6244 ft 220 kts 297°
2026-05-08 05:02 43.48846 -115.99795 5976 ft 220 kts 297°
2026-05-08 05:03 43.49502 -116.01710 5686 ft 220 kts 297°
2026-05-08 05:03 43.50152 -116.03608 5486 ft 213 kts 297°
2026-05-08 05:03 43.50740 -116.05401 5272 ft 198 kts 294°
2026-05-08 05:03 43.51055 -116.06584 5116 ft 190 kts 291°
2026-05-08 05:04 43.51675 -116.08772 4675 ft 178 kts 296°
2026-05-08 05:04 43.52032 -116.09779 4538 ft 169 kts 297°
2026-05-08 05:04 43.52564 -116.11174 4274 ft 160 kts 297°
2026-05-08 05:04 43.53038 -116.12557 4084 ft 159 kts 296°
2026-05-08 05:05 43.53505 -116.13936 3974 ft 158 kts 296°
2026-05-08 05:05 43.53961 -116.15300 3827 ft 158 kts 296°
2026-05-08 05:05 43.54411 -116.16685 3572 ft 158 kts 296°
2026-05-08 05:05 43.54874 -116.18055 3373 ft 157 kts 296°
2026-05-08 05:06 43.55347 -116.19411 3125 ft 156 kts 296°
2026-05-08 05:06 43.55807 -116.20754 2929 ft 153 kts 296°
2026-05-08 05:06 43.56214 -116.21944 2889 ft 105 kts 295°
2026-05-08 05:06 43.56419 -116.22553 2890 ft 50 kts 295°
2026-05-08 05:07 43.56554 -116.22951 2892 ft 32 kts 296°
2026-05-08 05:07 43.56684 -116.23008 2890 ft 23 kts 22°
2026-05-08 05:07 43.56812 -116.22922 2888 ft 10 kts 32°
2026-05-08 05:07 43.56840 -116.22841 2889 ft 11 kts 96°
2026-05-08 05:08 43.56815 -116.22732 2889 ft 13 kts 113°
2026-05-08 05:08 43.56772 -116.22601 2889 ft 17 kts 116°
2026-05-08 05:08 43.56718 -116.22445 2890 ft 19 kts 115°
2026-05-08 05:08 43.56659 -116.22274 2889 ft 13 kts 115°
2026-05-08 05:09 43.56647 -116.22187 2889 ft 10 kts 63°
2026-05-08 05:09 43.56659 -116.22143 2890 ft 1 kts 78°
2026-05-08 05:09 43.56660 -116.22138 2890 ft 1 kts 88°
2026-05-08 05:09 43.56658 -116.22112 2890 ft 4 kts 94°
2026-05-08 05:10 43.56668 -116.22067 2890 ft 6 kts 51°
2026-05-08 05:10 43.56698 -116.22033 2890 ft 0 kts 37°